User: anonymous   Login
Location: Unspecified
(0.0000°N, 0.0000°E)
Time: 00:51:08
(UTC+00:00)
Language:

STARLINK-33821 - Orbit

View from above orbital plane
View from above orbital plane
View from above satellite
View from above satellite

Ground track
Ground track

The orbit is defined by the following mean orbital elements,

1 63859U          26144.95328000 +.00000000 +00000-0 +15557-2 0 00003
2 63859  43.0021   7.3382 0001446 280.1706  79.8982 15.27638928    09
Epoch (UTC): 24 May 2026 22:52:43
Eccentricity: 0.0001446
inclination: 43.0021°
perigee height: 482 km
apogee height: 484 km
right ascension of ascending node: 7.3382°
argument of perigee: 280.1706°
revolutions per day: 15.27638928
mean anomaly at epoch: 79.8982°

The dashed part of the orbit path shows where the satellite is in the earth's shadow,  

DLR